FW1608 Weather Reports


Display with metric or nautical units.
time (UTC)temp
F
wind
direction
speed
MPH
gust
MPH
rain 1hr
in
rain 24hr
in
rain mn
in
humidity
%
barometer
mb
20260507204543 48 235 5.0 10.0 0.01 0.09 0.09 93 1014.5
20260507203141 48 282 3.0 6.0 0.01 0.09 0.09 93 1014.4
20260507201540 49 282 3.0 7.0 0.02 0.09 0.09 92 1014.2
20260507200046 49 219 4.0 7.0 0.09 0.09 0.09 92 1014.3
20260507194537 50 230 1.0 5.0 0.08 0.09 0.09 91 1014.1
20260507193136 51 332 2.0 6.0 0.08 0.09 0.09 90 1014.1
20260507191542 52 310 3.0 7.0 0.06 0.07 0.07 88 1014.0
20260507190040 52 193 3.0 5.0 0.00 0.01 0.01 86 1013.8
20260507184540 52 213 0.0 2.0 0.00 0.01 0.01 84 1013.6
20260507183139 52 213 1.0 5.0 0.00 0.01 0.01 84 1013.5
20260507181535 51 18 1.0 4.0 0.00 0.01 0.01 85 1013.3
20260507180042 52 308 1.0 4.0 0.00 0.01 0.01 85 1013.1
20260507174536 52 310 0.0 1.0 0.00 0.01 0.01 85 1013.1
20260507173134 52 310 0.0 2.0 0.00 0.01 0.01 84 1012.9
20260507171607 52 311 1.0 4.0 0.00 0.01 0.01 83 1013.1
20260507170055 53 311 2.0 4.0 0.00 0.01 0.01 81 1012.8
20260507164602 54 28 0.0 1.0 0.00 0.01 0.01 80 1012.9
20260507163149 55 57 0.0 1.0 0.00 0.01 0.01 80 1012.9
20260507161547 56 59 1.0 2.0 0.00 0.01 0.01 76 1013.0
20260507160046 57 62 0.0 3.0 0.00 0.01 0.01 74 1013.0
20260507154545 58 61 1.0 5.0 0.00 0.01 0.01 71 1012.9
20260507153144 59 18 1.0 5.0 0.00 0.01 0.01 69 1013.0
20260507151544 60 76 1.0 6.0 0.00 0.01 0.01 70 1013.0
20260507150043 59 39 0.0 10.0 0.00 0.01 0.01 71 1013.2
20260507144640 57 40 1.0 9.0 0.00 0.01 0.01 70 1013.2
20260507143139 58 18 2.0 6.0 0.00 0.01 0.01 70 1013.3
20260507141537 58 92 0.0 3.0 0.00 0.01 0.01 70 1013.3
20260507140036 59 83 1.0 4.0 0.00 0.01 0.01 70 1013.4
20260507134545 60 15 1.0 13.0 0.00 0.01 0.01 72 1013.5
20260507133135 61 51 0.0 8.0 0.00 0.01 0.01 67 1013.5
20260507131609 61 53 3.0 11.0 0.00 0.01 0.01 69 1013.7
20260507130055 61 64 4.0 12.0 0.00 0.01 0.01 68 1013.8
20260507124554 60 74 1.0 9.0 0.00 0.01 0.01 70 1013.8
20260507123150 60 29 2.0 7.0 0.00 0.01 0.01 68 1014.0
20260507121555 59 88 3.0 7.0 0.00 0.01 0.01 70 1014.1
20260507120051 59 78 2.0 11.0 0.00 0.01 0.01 69 1014.2
20260507114547 58 68 1.0 9.0 0.00 0.01 0.01 75 1014.3
20260507113147 58 59 1.0 8.0 0.00 0.01 0.01 78 1014.5
20260507111543 57 55 2.0 9.0 0.00 0.01 0.01 80 1014.5
20260507110055 55 70 2.0 9.0 0.00 0.04 0.01 84 1014.7
20260507104540 55 78 3.0 8.0 0.00 0.04 0.01 81 1014.9
20260507103140 56 68 1.0 5.0 0.00 0.04 0.01 80 1015.0
20260507101546 56 38 1.0 5.0 0.00 0.04 0.01 82 1015.1
20260507100041 55 29 1.0 6.0 0.00 0.06 0.01 82 1015.1
20260507094538 56 58 1.0 6.0 0.00 0.06 0.01 83 1015.0
20260507093136 56 50 2.0 5.0 0.00 0.06 0.01 84 1015.0
20260507091559 55 32 1.0 4.0 0.00 0.06 0.01 85 1014.9
20260507090042 55 72 1.0 5.0 0.00 0.08 0.01 86 1015.0
20260507084539 54 65 2.0 5.0 0.00 0.08 0.01 89 1014.8
20260507083131 53 65 1.0 4.0 0.00 0.08 0.01 88 1014.8
20260507081556 52 103 1.0 5.0 0.00 0.08 0.01 89 1014.8
20260507080054 52 61 1.0 4.0 0.00 0.08 0.01 91 1014.8
20260507074550 51 84 0.0 4.0 0.00 0.08 0.01 90 1014.6
20260507073147 50 96 1.0 4.0 0.00 0.08 0.01 90 1014.7
20260507071557 48 126 2.0 6.0 0.00 0.08 0.01 93 1014.6
20260507070100 48 130 2.0 5.0 0.00 0.10 0.01 93 1014.6
20260507064546 46 161 3.0 5.0 0.00 0.10 0.01 94 1014.7
20260507063144 45 192 3.0 6.0 0.00 0.10 0.01 95 1014.7
20260507061551 45 198 5.0 8.0 0.00 0.10 0.01 95 1014.5
20260507054547 43 157 6.0 10.0 0.00 0.17 0.01 96 1014.5
20260507053137 43 171 6.0 11.0 0.00 0.17 0.01 96 1014.4
20260507051543 42 180 4.0 8.0 0.00 0.17 0.01 96 1014.4
20260507050042 42 199 4.0 10.0 0.00 0.26 0.01 96 1014.3
20260507044534 42 209 3.0 8.0 0.00 0.26 0.01 96 1014.2
20260507043132 42 221 1.0 4.0 0.00 0.26 0.01 96 1014.0
20260507041552 42 224 2.0 5.0 0.00 0.26 0.01 96 1014.0
20260507040050 42 240 0.0 3.0 0.00 0.35 0.01 95 1014.0
20260507034557 43 240 2.0 5.0 0.00 0.35 0.01 96 1013.9
20260507033148 43 259 1.0 3.0 0.00 0.35 0.01 96 1014.0
20260507031544 43 259 1.0 3.0 0.00 0.35 0.01 96 1014.1
20260507030045 44 261 2.0 4.0 0.00 0.40 0.01 96 1014.0
20260507024555 44 259 2.0 4.0 0.00 0.40 0.01 96 1014.0
20260507023143 44 255 2.0 3.0 0.00 0.40 0.01 96 1013.9
20260507021547 44 255 2.0 3.0 0.00 0.40 0.01 96 1014.0
20260507020044 44 255 2.0 3.0 0.01 0.42 0.01 95 1014.0
20260507014543 44 255 1.0 3.0 0.01 0.42 0.01 95 1014.0
20260507013140 44 255 0.0 0.0 0.01 0.42 0.01 95 1013.9
20260507011542 44 254 0.0 4.0 0.01 0.42 0.01 95 1013.9
20260507010042 44 1 0.0 2.0 0.00 0.41 0.00 94 1014.2
20260507004535 44 8 2.0 8.0 0.00 0.41 0.00 94 1014.1
20260507003135 44 167 1.0 4.0 0.00 0.41 0.00 94 1013.9
20260507001602 44 184 0.0 6.0 0.00 0.41 0.00 94 1014.0
20260507000104 44 224 8.0 15.0 0.00 0.41 0.00 94 1013.9
20260506234602 44 215 3.0 5.0 0.00 0.41 0.00 95 1013.9
20260506233150 44 249 2.0 5.0 0.00 0.41 0.00 94 1013.8
20260506231548 44 229 2.0 4.0 0.00 0.41 0.00 94 1013.8
20260506230047 44 347 2.0 4.0 0.00 0.43 0.00 94 1013.8
20260506224549 44 351 0.0 4.0 0.00 0.43 0.00 94 1013.9
20260506223145 44 220 4.0 8.0 0.00 0.43 0.00 94 1013.8
20260506221548 45 191 2.0 6.0 0.00 0.43 0.00 93 1013.7
20260506220050 44 232 3.0 7.0 0.00 0.43 0.43 94 1013.9
20260506214544 44 205 3.0 6.0 0.00 0.43 0.43 94 1013.8
20260506213142 44 243 3.0 5.0 0.00 0.43 0.43 94 1013.6
20260506211546 44 269 1.0 4.0 0.00 0.43 0.43 94 1013.4
20260506210037 45 257 2.0 6.0 0.00 0.46 0.43 93 1013.4